| time (UTC) | temp F | wind direction | speed MPH | gust MPH | rain 1hr in | rain 24hr in | rain mn in | humidity % | barometer mb |
| 20260904225043 | 56 | 0.0 | 0.0 | 0.00 | 0.00 | 0.00 | 94 | 998.0 | |
| 20260904224033 | 56 | 0.0 | 0.0 | 0.00 | 0.00 | 0.00 | 94 | 998.0 | |
| 20260904223029 | 56 | 0.0 | 0.0 | 0.00 | 0.00 | 0.00 | 93 | 998.0 | |
| 20260904222015 | 56 | 0.0 | 0.0 | 0.00 | 0.00 | 0.00 | 93 | 998.0 | |
| 20260904221025 | 56 | 293 | 0.0 | 1.0 | 0.00 | 0.00 | 0.00 | 93 | 998.0 |
| 20260904220023 | 56 | 290 | 3.0 | 5.0 | 0.00 | 0.00 | 0.00 | 92 | 998.0 |
| 20260904215041 | 56 | 259 | 5.0 | 8.0 | 0.00 | 0.00 | 0.00 | 92 | 998.0 |
| 20260904214023 | 56 | 292 | 3.0 | 7.0 | 0.00 | 0.00 | 0.00 | 91 | 998.0 |
| 20260904213022 | 56 | 289 | 2.0 | 5.0 | 0.00 | 0.00 | 0.00 | 92 | 997.0 |
| 20260904212015 | 56 | 248 | 1.0 | 4.0 | 0.00 | 0.00 | 0.00 | 92 | 997.0 |
| 20260904211027 | 55 | 248 | 1.0 | 2.0 | 0.00 | 0.00 | 0.00 | 90 | 997.0 |
| 20260904205037 | 55 | 0.0 | 0.0 | 0.00 | 0.00 | 0.00 | 89 | 997.0 | |
| 20260904204107 | 55 | 0.0 | 0.0 | 0.00 | 0.00 | 0.00 | 89 | 997.0 | |
| 20260904203042 | 55 | 0.0 | 0.0 | 0.00 | 0.00 | 0.00 | 89 | 997.0 | |
| 20260904202108 | 56 | 0.0 | 0.0 | 0.00 | 0.00 | 0.00 | 88 | 997.0 | |
| 20260904201043 | 56 | 0.0 | 0.0 | 0.00 | 0.00 | 0.00 | 88 | 997.0 | |
| 20260904200042 | 56 | 0.0 | 0.0 | 0.00 | 0.00 | 0.00 | 87 | 997.0 | |
| 20260904195040 | 56 | 0.0 | 0.0 | 0.00 | 0.00 | 0.00 | 86 | 997.0 | |
| 20260904194047 | 56 | 0.0 | 0.0 | 0.00 | 0.00 | 0.00 | 86 | 997.0 | |
| 20260904193036 | 56 | 0.0 | 0.0 | 0.00 | 0.00 | 0.00 | 85 | 998.0 | |
| 20260904192103 | 55 | 0.0 | 0.0 | 0.00 | 0.00 | 0.00 | 85 | 997.0 | |
| 20260904191032 | 55 | 0.0 | 0.0 | 0.00 | 0.00 | 0.00 | 84 | 998.0 | |
| 20260904190030 | 56 | 0.0 | 0.0 | 0.00 | 0.00 | 0.00 | 83 | 998.0 | |
| 20260904185044 | 56 | 0.0 | 0.0 | 0.00 | 0.00 | 0.00 | 83 | 997.0 | |
| 20260904184103 | 56 | 0.0 | 0.0 | 0.00 | 0.00 | 0.00 | 83 | 997.0 | |
| 20260904183103 | 56 | 0.0 | 0.0 | 0.00 | 0.00 | 0.00 | 82 | 998.0 | |
| 20260904182044 | 57 | 0.0 | 0.0 | 0.00 | 0.00 | 0.00 | 82 | 998.0 | |
| 20260904181023 | 57 | 0.0 | 0.0 | 0.00 | 0.00 | 0.00 | 80 | 998.0 | |
| 20260904180032 | 57 | 0.0 | 0.0 | 0.00 | 0.00 | 0.00 | 79 | 998.0 | |
| 20260904175103 | 59 | 0.0 | 0.0 | 0.00 | 0.00 | 0.00 | 78 | 998.0 | |
| 20260904174123 | 59 | 0.0 | 0.0 | 0.00 | 0.00 | 0.00 | 77 | 998.0 | |
| 20260904173032 | 60 | 0.0 | 0.0 | 0.00 | 0.00 | 0.00 | 77 | 997.0 | |
| 20260904172043 | 61 | 0.0 | 0.0 | 0.00 | 0.00 | 0.00 | 76 | 997.8 | |
| 20260904171104 | 61 | 293 | 1.0 | 2.0 | 0.00 | 0.00 | 0.00 | 76 | 998.0 |
| 20260904170043 | 61 | 293 | 1.0 | 1.0 | 0.00 | 0.00 | 0.00 | 75 | 997.0 |
| 20260904165032 | 62 | 293 | 5.0 | 6.0 | 0.00 | 0.00 | 0.00 | 74 | 997.0 |
| 20260904164050 | 64 | 293 | 0.0 | 2.0 | 0.00 | 0.00 | 0.00 | 73 | 997.0 |
| 20260904163025 | 66 | 265 | 3.0 | 3.0 | 0.00 | 0.00 | 0.00 | 73 | 997.0 |
| 20260904162027 | 65 | 268 | 4.0 | 6.0 | 0.00 | 0.00 | 0.00 | 71 | 997.8 |
| 20260904161024 | 64 | 269 | 5.0 | 6.0 | 0.00 | 0.00 | 0.00 | 76 | 998.0 |
| 20260904160022 | 60 | 291 | 4.0 | 6.0 | 0.00 | 0.00 | 0.00 | 77 | 998.0 |
| 20260904155022 | 60 | 262 | 3.0 | 6.0 | 0.00 | 0.00 | 0.00 | 74 | 998.0 |
| 20260904154023 | 61 | 291 | 5.0 | 8.0 | 0.00 | 0.00 | 0.00 | 73 | 998.0 |
| 20260904153016 | 62 | 268 | 11.0 | 13.0 | 0.00 | 0.00 | 0.00 | 71 | 998.0 |
| 20260904152028 | 64 | 264 | 7.0 | 10.0 | 0.00 | 0.00 | 0.00 | 69 | 997.2 |
| 20260904151043 | 67 | 275 | 6.0 | 9.0 | 0.00 | 0.00 | 0.00 | 68 | 997.0 |
| 20260904150019 | 64 | 288 | 5.0 | 8.0 | 0.00 | 0.00 | 0.00 | 72 | 997.0 |
| 20260904145043 | 64 | 247 | 5.0 | 7.0 | 0.00 | 0.00 | 0.00 | 73 | 997.8 |
| 20260904144043 | 63 | 272 | 3.0 | 6.0 | 0.00 | 0.00 | 0.00 | 73 | 998.0 |
| 20260904143017 | 62 | 293 | 4.0 | 6.0 | 0.00 | 0.00 | 0.00 | 72 | 998.0 |
| 20260904142105 | 63 | 264 | 7.0 | 9.0 | 0.00 | 0.00 | 0.00 | 69 | 998.0 |
| 20260904141042 | 64 | 287 | 6.0 | 7.0 | 0.00 | 0.00 | 0.00 | 68 | 998.0 |
| 20260904140016 | 65 | 254 | 7.0 | 9.0 | 0.00 | 0.00 | 0.00 | 68 | 998.0 |
| 20260904135059 | 65 | 259 | 8.0 | 10.0 | 0.00 | 0.00 | 0.00 | 68 | 998.0 |
| 20260904134043 | 67 | 266 | 7.0 | 9.0 | 0.00 | 0.00 | 0.00 | 70 | 998.0 |
| 20260904133034 | 64 | 267 | 7.0 | 10.0 | 0.00 | 0.00 | 0.00 | 72 | 998.0 |
| 20260904132050 | 64 | 260 | 7.0 | 12.0 | 0.00 | 0.00 | 0.00 | 72 | 998.0 |
| 20260904131031 | 65 | 274 | 7.0 | 10.0 | 0.00 | 0.00 | 0.00 | 70 | 998.0 |
| 20260904130101 | 65 | 276 | 7.0 | 8.0 | 0.00 | 0.00 | 0.00 | 70 | 998.0 |
| 20260904125032 | 67 | 275 | 6.0 | 8.0 | 0.00 | 0.00 | 0.00 | 68 | 998.0 |
| 20260904124043 | 69 | 259 | 7.0 | 13.0 | 0.00 | 0.00 | 0.00 | 67 | 998.0 |
| 20260904123043 | 69 | 259 | 6.0 | 12.0 | 0.00 | 0.00 | 0.00 | 68 | 998.0 |
| 20260904122047 | 68 | 280 | 8.0 | 10.0 | 0.00 | 0.00 | 0.00 | 71 | 999.0 |
| 20260904121044 | 64 | 287 | 6.0 | 8.0 | 0.00 | 0.00 | 0.00 | 76 | 999.0 |
| 20260904120044 | 63 | 262 | 6.0 | 6.0 | 0.00 | 0.00 | 0.00 | 76 | 999.0 |
| 20260904115056 | 62 | 270 | 8.0 | 13.0 | 0.00 | 0.00 | 0.00 | 78 | 999.0 |
| 20260904114042 | 62 | 269 | 6.0 | 8.0 | 0.00 | 0.00 | 0.00 | 78 | 999.0 |
| 20260904113043 | 62 | 248 | 10.0 | 10.0 | 0.00 | 0.00 | 0.00 | 78 | 999.0 |
| 20260904112022 | 62 | 248 | 9.0 | 10.0 | 0.00 | 0.00 | 0.00 | 78 | 999.0 |
| 20260904111055 | 62 | 269 | 8.0 | 9.0 | 0.00 | 0.00 | 0.00 | 78 | 999.0 |
| 20260904110123 | 62 | 261 | 6.0 | 8.0 | 0.00 | 0.00 | 0.00 | 79 | 999.0 |
| 20260904105024 | 62 | 262 | 6.0 | 8.0 | 0.00 | 0.00 | 0.00 | 79 | 999.0 |
| 20260904104028 | 62 | 250 | 6.0 | 8.0 | 0.00 | 0.00 | 0.00 | 78 | 999.0 |
| 20260904103044 | 62 | 260 | 7.0 | 8.0 | 0.00 | 0.00 | 0.00 | 78 | 999.0 |
| 20260904102018 | 63 | 277 | 8.0 | 14.0 | 0.00 | 0.00 | 0.00 | 74 | 999.0 |
| 20260904101022 | 63 | 266 | 9.0 | 11.0 | 0.00 | 0.00 | 0.00 | 74 | 999.0 |
| 20260904100022 | 63 | 280 | 8.0 | 13.0 | 0.00 | 0.00 | 0.00 | 74 | 999.0 |
| 20260904095016 | 63 | 265 | 9.0 | 11.0 | 0.00 | 0.00 | 0.00 | 74 | 999.0 |
| 20260904094017 | 63 | 255 | 11.0 | 13.0 | 0.00 | 0.00 | 0.00 | 75 | 999.0 |
| 20260904093045 | 63 | 271 | 10.0 | 13.0 | 0.00 | 0.00 | 0.00 | 75 | 1000.0 |
| 20260904092015 | 62 | 247 | 8.0 | 11.0 | 0.00 | 0.00 | 0.00 | 77 | 1000.0 |
| 20260904091043 | 62 | 259 | 10.0 | 12.0 | 0.00 | 0.00 | 0.00 | 77 | 1000.0 |
| 20260904090043 | 62 | 268 | 10.0 | 12.0 | 0.00 | 0.00 | 0.00 | 78 | 1000.0 |
| 20260904085043 | 61 | 263 | 9.0 | 11.0 | 0.00 | 0.00 | 0.00 | 79 | 1000.0 |
| 20260904084033 | 61 | 258 | 9.0 | 17.0 | 0.00 | 0.00 | 0.00 | 80 | 1000.0 |
| 20260904083043 | 61 | 271 | 7.0 | 10.0 | 0.00 | 0.00 | 0.00 | 81 | 1000.0 |
| 20260904082042 | 61 | 248 | 9.0 | 13.0 | 0.00 | 0.00 | 0.00 | 81 | 1000.0 |
| 20260904081044 | 61 | 251 | 8.0 | 11.0 | 0.00 | 0.00 | 0.00 | 83 | 1000.0 |
| 20260904080043 | 61 | 266 | 7.0 | 8.0 | 0.00 | 0.00 | 0.00 | 83 | 1000.0 |
| 20260904075103 | 61 | 261 | 7.0 | 8.0 | 0.00 | 0.00 | 0.00 | 84 | 1000.0 |
| 20260904074034 | 60 | 251 | 9.0 | 11.0 | 0.00 | 0.00 | 0.00 | 84 | 1000.0 |
| 20260904073044 | 60 | 238 | 8.0 | 10.0 | 0.00 | 0.00 | 0.00 | 85 | 1000.0 |
| 20260904072016 | 60 | 261 | 6.0 | 8.0 | 0.00 | 0.00 | 0.00 | 86 | 1000.0 |
| 20260904071043 | 59 | 259 | 7.0 | 9.0 | 0.00 | 0.00 | 0.00 | 87 | 1000.0 |
| 20260904070043 | 59 | 271 | 8.0 | 11.0 | 0.00 | 0.00 | 0.00 | 87 | 1000.0 |
| 20260904065019 | 59 | 245 | 5.0 | 8.0 | 0.00 | 0.00 | 0.00 | 88 | 1000.0 |
| 20260904064036 | 59 | 242 | 6.0 | 10.0 | 0.00 | 0.00 | 0.00 | 88 | 1000.0 |
| 20260904063038 | 58 | 280 | 4.0 | 6.0 | 0.00 | 0.00 | 0.00 | 89 | 1001.0 |
| 20260904062103 | 58 | 252 | 7.0 | 9.0 | 0.00 | 0.00 | 0.00 | 89 | 1001.0 |
| 20260904061103 | 58 | 248 | 7.0 | 10.0 | 0.00 | 0.00 | 0.00 | 89 | 1001.0 |
| 20260904060036 | 58 | 296 | 6.0 | 8.0 | 0.00 | 0.00 | 0.00 | 90 | 1001.0 |
| 20260904055043 | 58 | 271 | 6.0 | 8.0 | 0.00 | 0.00 | 0.00 | 90 | 1001.0 |
| 20260904054042 | 58 | 266 | 5.0 | 7.0 | 0.00 | 0.00 | 0.00 | 91 | 1001.0 |
| 20260904053034 | 57 | 254 | 6.0 | 7.0 | 0.00 | 0.00 | 0.00 | 91 | 1001.0 |
| 20260904052034 | 57 | 261 | 5.0 | 6.0 | 0.00 | 0.00 | 0.00 | 92 | 1001.0 |
| 20260904051018 | 57 | 277 | 5.0 | 9.0 | 0.00 | 0.00 | 0.00 | 92 | 1001.0 |
| 20260904050030 | 57 | 248 | 5.0 | 6.0 | 0.00 | 0.00 | 0.00 | 92 | 1001.0 |
| 20260904045028 | 57 | 259 | 6.0 | 8.0 | 0.00 | 0.00 | 0.00 | 92 | 1001.0 |
| 20260904044027 | 57 | 230 | 7.0 | 11.0 | 0.00 | 0.00 | 0.00 | 93 | 1001.0 |
| 20260904043024 | 57 | 271 | 6.0 | 8.0 | 0.00 | 0.00 | 0.00 | 93 | 1001.0 |
| 20260904042022 | 57 | 257 | 8.0 | 11.0 | 0.00 | 0.00 | 0.00 | 93 | 1001.0 |
| 20260904041024 | 57 | 262 | 8.0 | 10.0 | 0.00 | 0.00 | 0.00 | 94 | 1001.0 |
| 20260904040023 | 57 | 277 | 6.0 | 8.0 | 0.00 | 0.00 | 0.00 | 94 | 1001.0 |
| 20260904035056 | 57 | 252 | 5.0 | 6.0 | 0.00 | 0.00 | 0.00 | 95 | 1001.0 |
| 20260904034043 | 57 | 253 | 7.0 | 10.0 | 0.00 | 0.00 | 0.00 | 95 | 1001.0 |
| 20260904033026 | 57 | 243 | 7.0 | 10.0 | 0.00 | 0.00 | 0.00 | 95 | 1001.0 |
| 20260904032123 | 57 | 268 | 8.0 | 10.0 | 0.00 | 0.00 | 0.00 | 95 | 1001.0 |
| 20260904031043 | 57 | 268 | 8.0 | 11.0 | 0.00 | 0.00 | 0.00 | 95 | 1001.0 |
| 20260904030024 | 57 | 257 | 6.0 | 10.0 | 0.00 | 0.00 | 0.00 | 95 | 1001.0 |
| 20260904025043 | 57 | 257 | 6.0 | 7.0 | 0.00 | 0.00 | 0.00 | 95 | 1001.0 |
| 20260904024106 | 57 | 262 | 5.0 | 7.0 | 0.00 | 0.00 | 0.00 | 95 | 1001.0 |
| 20260904023043 | 57 | 244 | 6.0 | 7.0 | 0.00 | 0.00 | 0.00 | 96 | 1002.0 |
| 20260904022042 | 57 | 258 | 7.0 | 9.0 | 0.00 | 0.00 | 0.00 | 96 | 1002.0 |
| 20260904021043 | 57 | 244 | 6.0 | 7.0 | 0.00 | 0.00 | 0.00 | 96 | 1002.0 |
| 20260904020024 | 57 | 237 | 7.0 | 8.0 | 0.00 | 0.00 | 0.00 | 96 | 1002.0 |
| 20260904015034 | 57 | 265 | 8.0 | 8.0 | 0.00 | 0.00 | 0.00 | 96 | 1002.0 |
| 20260904014018 | 57 | 260 | 6.0 | 8.0 | 0.00 | 0.00 | 0.00 | 97 | 1002.0 |
| 20260904013016 | 57 | 248 | 6.0 | 8.0 | 0.00 | 0.00 | 0.00 | 97 | 1002.0 |
| 20260904012028 | 57 | 274 | 6.0 | 9.0 | 0.00 | 0.00 | 0.00 | 97 | 1002.0 |
| 20260904011143 | 57 | 257 | 7.0 | 9.0 | 0.00 | 0.00 | 0.00 | 97 | 1002.0 |
| 20260904010016 | 57 | 263 | 7.0 | 9.0 | 0.00 | 0.00 | 0.00 | 97 | 1002.0 |
| 20260904005043 | 58 | 260 | 7.0 | 11.0 | 0.00 | 0.00 | 0.00 | 96 | 1003.0 |
| 20260904004046 | 58 | 266 | 6.0 | 10.0 | 0.00 | 0.00 | 0.00 | 96 | 1003.0 |
| 20260904003016 | 58 | 264 | 8.0 | 9.0 | 0.00 | 0.00 | 0.00 | 96 | 1003.0 |
| 20260904002103 | 58 | 252 | 5.0 | 8.0 | 0.00 | 0.00 | 0.00 | 96 | 1003.0 |
| 20260904001043 | 58 | 248 | 7.0 | 11.0 | 0.00 | 0.00 | 0.00 | 96 | 1003.0 |
| 20260904000134 | 58 | 265 | 5.0 | 6.0 | 0.00 | 0.00 | 0.00 | 96 | 1003.0 |
| 20260903235029 | 58 | 264 | 5.0 | 6.0 | 0.00 | 0.00 | 0.00 | 96 | 1003.0 |
| 20260903234057 | 58 | 269 | 5.0 | 7.0 | 0.00 | 0.00 | 0.00 | 95 | 1003.0 |
| 20260903233034 | 58 | 252 | 6.0 | 8.0 | 0.00 | 0.00 | 0.00 | 95 | 1003.0 |
| 20260903232033 | 58 | 231 | 4.0 | 10.0 | 0.00 | 0.00 | 0.00 | 95 | 1003.0 |
| 20260903231030 | 58 | 0.0 | 0.0 | 0.00 | 0.00 | 0.00 | 95 | 1003.0 | |
| 20260903230029 | 58 | 0.0 | 0.0 | 0.00 | 0.00 | 0.00 | 95 | 1003.0 |